| time (UTC) | temp F | wind direction | speed MPH | gust MPH | rain 1hr in | rain 24hr in | rain mn in | humidity % | barometer mb |
| 20260502170130 | 75 | 232 | 5.0 | 15.0 | 0.00 | 0.00 | 0.00 | 25 | 1005.1 |
| 20260502163121 | 75 | 252 | 5.0 | 16.0 | 0.00 | 0.00 | 0.00 | 26 | 1005.4 |
| 20260502160132 | 76 | 243 | 6.0 | 14.0 | 0.00 | 0.00 | 0.00 | 26 | 1005.7 |
| 20260502140115 | 76 | 238 | 6.0 | 12.0 | 0.00 | 0.00 | 0.00 | 29 | 1007.0 |
| 20260502123122 | 75 | 192 | 8.0 | 16.0 | 0.00 | 0.00 | 0.00 | 28 | 1008.2 |
| 20260502113045 | 75 | 212 | 6.0 | 14.0 | 0.00 | 0.00 | 0.00 | 30 | 1009.0 |
| 20260502110115 | 74 | 194 | 7.0 | 19.0 | 0.00 | 0.00 | 0.00 | 30 | 1009.4 |
| 20260502103126 | 73 | 204 | 7.0 | 15.0 | 0.00 | 0.00 | 0.00 | 31 | 1009.8 |
| 20260502070055 | 76 | 201 | 3.0 | 9.0 | 0.00 | 0.00 | 0.00 | 31 | 1012.7 |
| 20260502063045 | 67 | 227 | 3.0 | 8.0 | 0.00 | 0.00 | 0.00 | 43 | 1013.0 |
| 20260502060038 | 57 | 209 | 2.0 | 9.0 | 0.00 | 0.00 | 0.00 | 55 | 1013.2 |
| 20260502053026 | 53 | 178 | 2.0 | 7.0 | 0.00 | 0.00 | 0.00 | 62 | 1013.3 |
| 20260502050056 | 50 | 172 | 2.0 | 5.0 | 0.00 | 0.00 | 0.00 | 65 | 1013.4 |
| 20260502043106 | 48 | 152 | 1.0 | 4.0 | 0.00 | 0.00 | 0.00 | 65 | 1013.5 |
| 20260502040140 | 48 | 180 | 0.0 | 3.0 | 0.00 | 0.00 | 0.00 | 63 | 1013.5 |
| 20260502033047 | 48 | 180 | 0.0 | 3.0 | 0.00 | 0.00 | 0.00 | 61 | 1013.7 |
| 20260502030038 | 50 | 180 | 0.0 | 3.0 | 0.00 | 0.00 | 0.00 | 60 | 1013.9 |
| 20260502023048 | 52 | 162 | 1.0 | 4.0 | 0.00 | 0.00 | 0.00 | 58 | 1014.0 |
| 20260502020019 | 53 | 217 | 2.0 | 9.0 | 0.00 | 0.00 | 0.00 | 57 | 1014.2 |
| 20260502013110 | 52 | 233 | 2.0 | 9.0 | 0.00 | 0.00 | 0.00 | 57 | 1014.4 |
| 20260502010101 | 52 | 210 | 2.0 | 6.0 | 0.00 | 0.00 | 0.00 | 56 | 1014.7 |
| 20260502003051 | 52 | 219 | 1.0 | 6.0 | 0.00 | 0.00 | 0.00 | 55 | 1014.9 |
| 20260502000042 | 53 | 186 | 1.0 | 3.0 | 0.00 | 0.00 | 0.00 | 53 | 1015.1 |
| 20260501233032 | 54 | 231 | 2.0 | 6.0 | 0.00 | 0.00 | 0.00 | 52 | 1015.3 |
| 20260501230023 | 54 | 232 | 2.0 | 7.0 | 0.00 | 0.00 | 0.00 | 50 | 1015.6 |
| 20260501223112 | 54 | 223 | 1.0 | 4.0 | 0.00 | 0.00 | 0.00 | 46 | 1015.8 |
| 20260501213133 | 56 | 242 | 2.0 | 8.0 | 0.00 | 0.00 | 0.00 | 42 | 1016.1 |
| 20260501210105 | 57 | 225 | 2.0 | 6.0 | 0.00 | 0.00 | 0.00 | 41 | 1016.1 |
| 20260501203033 | 59 | 230 | 4.0 | 10.0 | 0.00 | 0.00 | 0.00 | 39 | 1016.3 |
| 20260501200024 | 61 | 244 | 3.0 | 9.0 | 0.00 | 0.00 | 0.00 | 36 | 1016.5 |
| 20260501193134 | 63 | 268 | 4.0 | 10.0 | 0.00 | 0.00 | 0.00 | 32 | 1016.5 |
| 20260501190106 | 65 | 255 | 5.0 | 12.0 | 0.00 | 0.00 | 0.00 | 31 | 1016.3 |
| 20260501183056 | 67 | 274 | 3.0 | 8.0 | 0.00 | 0.00 | 0.00 | 30 | 1016.1 |